Location: Torrington
(42.0650°N, 104.1810°W)
Time: 15:55:14
(UTC-06:00)

Amateur Radio Satellites - All Passes

Search period start: 23 October 2014 15:25
Search period end: 24 October 2014 15:25
Location: Torrington, 42.0650°N, 104.1810°W

Satellite Date Start Highest point End Downlink Frequencies (MHz)
Time Altitude Azimuth
JAS-1B 23 Oct 15:38:44 15:41:17 13° 270° (W) 15:43:47 435.800 - 435.900 CW/SSB
Uosat F 23 Oct 15:53:12 15:57:49 39° 69° (ENE) 16:02:29 435.120 FM
AO-Echo 23 Oct 15:53:19 15:53:38 10° 273° (W) 15:53:57 ?
Uribyol 2 23 Oct 16:02:53 16:03:59 11° 272° (W) 16:05:05 436.500 FM
KITSAT 1 23 Oct 16:13:22 16:17:52 16° 339° (NNW) 16:22:23 435.175 FM
Gurwin Techsat 1B 23 Oct 16:17:41 16:20:57 16° 269° (W) 16:24:13 435.225 FM
AO-7 23 Oct 16:18:55 16:27:12 87° 252° (WSW) 16:35:33 29.400 - 29.500 MHz
TMSAT-1 23 Oct 16:29:42 16:33:05 17° 269° (W) 16:36:29 436.925 FM
Saudisat 1A 23 Oct 16:30:36 16:34:54 47° 52° (NE) 16:39:10 436.775 MHz
UOSAT-12 23 Oct 16:31:52 16:35:53 28° 315° (NW) 16:39:57 437.025 FM, 437.400 FM
ISS 23 Oct 16:47:52 16:50:00 16° 359° (N) 16:52:09 145.800 FM
JAS-2 23 Oct 16:58:54 17:04:26 43° 66° (ENE) 17:10:40 435.800 - 435.900 CW/SSB, 435.910 FM
OPAL 23 Oct 17:29:40 17:33:45 25° 97° (E) 17:37:49 ?
Uosat F 23 Oct 17:32:36 17:36:42 25° 265° (W) 17:40:50 435.120 FM
Hamsat 23 Oct 17:59:30 18:03:44 87° 259° (WSW) 18:07:57 145.90 MHz
Saudisat 1A 23 Oct 18:11:00 18:14:08 19° 249° (WSW) 18:17:15 436.775 MHz
KITSAT 1 23 Oct 18:14:15 18:17:31 13° 11° (N) 18:20:47 435.175 FM
AO-7 23 Oct 18:16:01 18:21:04 17° 270° (W) 18:26:09 29.400 - 29.500 MHz
ISS 23 Oct 18:24:42 18:27:33 25° 20° (NNE) 18:30:23 145.800 FM
SO-67 23 Oct 18:35:09 18:38:01 25° 71° (ENE) 18:40:53 435.3500 MHz FM
JAS-2 23 Oct 18:44:33 18:49:40 31° 268° (W) 18:55:24 435.800 - 435.900 CW/SSB, 435.910 FM
OPAL 23 Oct 19:08:09 19:12:44 38° 294° (WNW) 19:17:16 ?
STRAND 1 23 Oct 19:11:32 19:16:09 32° 96° (E) 19:20:43 ?
ISS 23 Oct 20:01:10 20:04:29 64° 218° (SW) 20:07:47 145.800 FM
SO-67 23 Oct 20:08:35 20:10:59 18° 266° (W) 20:13:24 435.3500 MHz FM
KITSAT 1 23 Oct 20:09:20 20:16:13 29° 39° (NE) 20:23:02 435.175 FM
SO-50 23 Oct 20:11:52 20:13:28 12° 32° (NNE) 20:15:05 436.795 FM
HO-68 23 Oct 20:20:37 20:27:25 49° 66° (ENE) 20:34:15 435.675 MHz FM
RS-15 23 Oct 20:21:54 20:23:30 10° 94° (E) 20:25:06 29.354 - 29.394 USB, Beacon 29.352 USB
STRAND 1 23 Oct 20:50:44 20:55:16 32° 293° (WNW) 20:59:47 ?
ZACube-1 23 Oct 20:58:58 21:00:26 11° 61° (ENE) 21:01:54 437.345 MHz
UKube-1 23 Oct 21:03:47 21:07:36 31° 68° (ENE) 21:11:27 145.840 MHz, 145.915 MHz
FUNcube-1 23 Oct 21:41:06 21:45:04 30° 69° (ENE) 21:49:01 145.950 - 145.970 MHz USB
Oscar 11 23 Oct 21:45:49 21:50:09 76° 75° (ENE) 21:54:29 145.825 FM, Beacon 2401.500 USB
SO-50 23 Oct 21:50:21 21:55:06 54° 53° (NE) 21:59:53 436.795 FM
KITSAT 1 23 Oct 22:04:23 22:12:28 80° 242° (WSW) 22:20:31 435.175 FM
HO-68 23 Oct 22:08:59 22:15:17 33° 264° (W) 22:21:39 435.675 MHz FM
RS-15 23 Oct 22:22:37 22:33:19 60° 114° (ESE) 22:43:56 29.354 - 29.394 USB, Beacon 29.352 USB
ZACube-1 23 Oct 22:31:34 22:36:11 82° 257° (WSW) 22:40:45 437.345 MHz
UKube-1 23 Oct 22:40:14 22:43:47 24° 265° (W) 22:47:22 145.840 MHz, 145.915 MHz
FUNcube-1 23 Oct 23:17:28 23:21:24 28° 265° (W) 23:25:18 145.950 - 145.970 MHz USB
UOSAT-12 23 Oct 23:20:21 23:24:50 41° 50° (NE) 23:29:15 437.025 FM, 437.400 FM
MaSat-1 23 Oct 23:28:32 23:31:51 23° 109° (ESE) 23:34:58 437.345 MHz
SO-50 23 Oct 23:31:48 23:35:18 20° 249° (WSW) 23:38:49 436.795 FM
KITSAT 1 24 Oct 00:02:19 00:06:34 15° 260° (W) 00:10:50 435.175 FM
RS-15 24 Oct 00:35:44 00:46:04 45° 318° (NW) 00:56:29 29.354 - 29.394 USB, Beacon 29.352 USB
Oscar 10/S400 24 Oct 00:55:45 01:57:42 24° 238° (WSW) 04:48:31 145.825 - 145.975 CW/USB, Beacon 145.810 USB
UOSAT-12 24 Oct 01:00:56 01:04:46 25° 248° (WSW) 01:08:33 437.025 FM, 437.400 FM
MaSat-1 24 Oct 01:03:46 01:07:25 30° 302° (WNW) 01:10:46 437.345 MHz
JAS-1B 24 Oct 01:26:24 01:31:29 22° 94° (E) 01:37:09 435.800 - 435.900 CW/SSB
Oscar 19 24 Oct 01:28:43 01:32:13 18° 92° (E) 01:35:43 437.125 CW, 437.150 USB
AO-27 24 Oct 01:46:31 01:47:10 10° 88° (E) 01:47:48 436.795 MHz FM
Oscar 16 24 Oct 02:13:14 02:18:13 50° 100° (E) 02:23:10 437.025 USB, Beacon 2401.1428
AO-Echo 24 Oct 02:16:17 02:20:53 29° 95° (E) 02:25:28 ?
Uribyol 2 24 Oct 02:31:22 02:35:59 31° 96° (E) 02:40:33 436.500 FM
ITAMSAT 1 24 Oct 02:37:05 02:41:48 33° 97° (E) 02:46:28 435.822 SSB
Gurwin Techsat 1B 24 Oct 02:51:42 02:56:01 25° 94° (E) 03:00:18 435.225 FM
RS-15 24 Oct 02:54:14 03:02:17 22° 351° (N) 03:10:27 29.354 - 29.394 USB, Beacon 29.352 USB
TMSAT-1 24 Oct 03:03:37 03:07:50 24° 93° (E) 03:12:01 436.925 FM
Oscar 19 24 Oct 03:06:54 03:11:53 54° 289° (WNW) 03:16:50 437.125 CW, 437.150 USB
JAS-1B 24 Oct 03:15:53 03:22:24 70° 288° (WNW) 03:30:12 435.800 - 435.900 CW/SSB
AO-27 24 Oct 03:22:07 03:27:24 88° 104° (ESE) 03:32:37 436.795 MHz FM
Oscar 16 24 Oct 03:53:25 03:57:13 21° 297° (WNW) 04:01:00 437.025 USB, Beacon 2401.1428
Sapphire 24 Oct 03:54:00 03:59:03 42° 112° (ESE) 04:04:07 437.095 MHz 1200 baud AX-25 AFSK
AO-Echo 24 Oct 03:54:49 03:59:40 37° 291° (WNW) 04:04:31 ?
Uosat F 24 Oct 04:03:01 04:04:19 11° 89° (E) 04:05:36 435.120 FM
Uribyol 2 24 Oct 04:10:47 04:15:26 33° 293° (WNW) 04:20:02 436.500 FM
PCSat 24 Oct 04:16:14 04:21:36 70° 117° (ESE) 04:27:01 145.825 MHz
ITAMSAT 1 24 Oct 04:16:38 04:21:13 32° 293° (WNW) 04:25:46 435.822 SSB
AO-7 24 Oct 04:20:34 04:27:44 31° 96° (E) 04:34:51 29.400 - 29.500 MHz
Gurwin Techsat 1B 24 Oct 04:31:08 04:36:08 43° 291° (WNW) 04:41:07 435.225 FM
TMSAT-1 24 Oct 04:42:54 04:47:56 45° 290° (WNW) 04:52:57 436.925 FM
OPAL 24 Oct 04:44:34 04:49:32 50° 69° (ENE) 04:54:27 ?
AO-27 24 Oct 05:03:46 05:06:09 13° 302° (WNW) 05:08:32 436.795 MHz FM
JAS-1B 24 Oct 05:09:34 05:12:10 13° 304° (NW) 05:14:55 435.800 - 435.900 CW/SSB
RS-15 24 Oct 05:10:21 05:19:39 29° 27° (NNE) 05:29:11 29.354 - 29.394 USB, Beacon 29.352 USB
Sapphire 24 Oct 05:37:47 05:42:34 31° 311° (NW) 05:47:23 437.095 MHz 1200 baud AX-25 AFSK
Uosat F 24 Oct 05:38:39 05:43:44 85° 286° (WNW) 05:48:46 435.120 FM
Hamsat 24 Oct 05:45:53 05:48:27 16° 92° (E) 05:51:01 145.90 MHz
JAS-2 24 Oct 05:51:19 05:58:41 44° 96° (E) 06:06:01 435.800 - 435.900 CW/SSB, 435.910 FM
PCSat 24 Oct 06:01:30 06:05:34 21° 316° (NW) 06:09:38 145.825 MHz
AO-7 24 Oct 06:12:46 06:20:54 61° 294° (WNW) 06:29:03 29.400 - 29.500 MHz
OPAL 24 Oct 06:24:52 06:28:39 20° 265° (W) 06:32:25 ?
STRAND 1 24 Oct 06:27:45 06:32:40 48° 70° (ENE) 06:37:37 ?
Saudisat 1A 24 Oct 06:41:18 06:41:51 10° 107° (ESE) 06:42:24 436.775 MHz
Uosat F 24 Oct 07:20:05 07:21:42 12° 303° (WNW) 07:23:20 435.120 FM
Hamsat 24 Oct 07:20:37 07:24:36 44° 288° (WNW) 07:28:36 145.90 MHz
RS-15 24 Oct 07:22:57 07:34:10 77° 55° (NE) 07:45:50 29.354 - 29.394 USB, Beacon 29.352 USB
SO-67 24 Oct 07:30:28 07:33:28 27° 96° (E) 07:36:26 435.3500 MHz FM
JAS-2 24 Oct 07:36:24 07:43:35 44° 294° (WNW) 07:50:51 435.800 - 435.900 CW/SSB, 435.910 FM
AO-7 24 Oct 08:07:57 08:12:02 15° 315° (NW) 08:16:07 29.400 - 29.500 MHz
STRAND 1 24 Oct 08:08:19 08:12:06 21° 267° (W) 08:15:55 ?
Saudisat 1A 24 Oct 08:16:20 08:20:43 83° 304° (NW) 08:25:09 436.775 MHz
SO-67 24 Oct 09:03:57 09:06:14 17° 292° (WNW) 09:08:31 435.3500 MHz FM
MaSat-1 24 Oct 09:13:49 09:16:16 32° 59° (ENE) 09:18:31 437.345 MHz
PANSAT 24 Oct 09:26:54 09:27:44 11° 178° (S) 09:28:34 not established
Oscar 11 24 Oct 09:34:44 09:36:49 13° 91° (E) 09:38:54 145.825 FM, Beacon 2401.500 USB
HO-68 24 Oct 09:35:04 09:42:00 48° 100° (E) 09:48:52 435.675 MHz FM
RS-15 24 Oct 09:36:21 09:45:31 31° 256° (WSW) 09:55:02 29.354 - 29.394 USB, Beacon 29.352 USB
Saudisat 1A 24 Oct 09:58:44 10:01:00 14° 323° (NW) 10:03:16 436.775 MHz
ZACube-1 24 Oct 10:21:38 10:24:34 18° 92° (E) 10:27:27 437.345 MHz
UKube-1 24 Oct 10:26:59 10:31:17 53° 101° (E) 10:35:32 145.840 MHz, 145.915 MHz
KITSAT 1 24 Oct 10:43:17 10:46:27 13° 98° (E) 10:49:38 435.175 FM
FUNcube-1 24 Oct 11:05:34 11:09:47 55° 100° (E) 11:13:52 145.950 - 145.970 MHz USB
Oscar 11 24 Oct 11:09:07 11:13:20 55° 287° (WNW) 11:17:32 145.825 FM, Beacon 2401.500 USB
Oscar 10/S400 24 Oct 11:20:28 11:36:11 18° 151° (SSE) 11:47:43 145.825 - 145.975 CW/USB, Beacon 145.810 USB
PCSat 24 Oct 11:22:15 11:24:37 13° 36° (NE) 11:26:58 145.825 MHz
HO-68 24 Oct 11:23:08 11:29:28 35° 298° (WNW) 11:35:48 435.675 MHz FM
Oscar 16 24 Oct 11:56:23 11:57:13 10° 57° (ENE) 11:58:02 437.025 USB, Beacon 2401.1428
ZACube-1 24 Oct 11:57:10 12:01:08 38° 289° (WNW) 12:05:01 437.345 MHz
UKube-1 24 Oct 12:04:26 12:07:02 16° 297° (WNW) 12:09:38 145.840 MHz, 145.915 MHz
SO-50 24 Oct 12:07:55 12:10:20 14° 108° (ESE) 12:12:47 436.795 FM
JAS-1B 24 Oct 12:15:37 12:18:52 16° 58° (ENE) 12:22:04 435.800 - 435.900 CW/SSB
KITSAT 1 24 Oct 12:32:23 12:40:23 71° 117° (ESE) 12:48:26 435.175 FM
Sapphire 24 Oct 12:41:20 12:46:25 38° 52° (NE) 12:51:27 437.095 MHz 1200 baud AX-25 AFSK
FUNcube-1 24 Oct 12:43:29 12:45:40 14° 297° (WNW) 12:47:50 145.950 - 145.970 MHz USB
ISS 24 Oct 12:43:33 12:46:32 31° 137° (SE) 12:49:33 145.800 FM
Oscar 19 24 Oct 12:45:47 12:50:10 29° 66° (ENE) 12:54:32 437.125 CW, 437.150 USB
AO-27 24 Oct 13:03:23 13:06:57 19° 62° (ENE) 13:10:31 436.795 MHz FM
PCSat 24 Oct 13:03:48 13:09:11 61° 57° (ENE) 13:14:32 145.825 MHz
AO-Echo 24 Oct 13:29:42 13:34:10 37° 68° (ENE) 13:38:47 ?
Oscar 16 24 Oct 13:30:31 13:35:40 76° 74° (ENE) 13:40:50 437.025 USB, Beacon 2401.1428
AO-7 24 Oct 13:35:44 13:36:58 10° 39° (NE) 13:38:12 29.400 - 29.500 MHz
SO-50 24 Oct 13:45:50 13:50:18 64° 306° (NW) 13:54:55 436.795 FM
Uribyol 2 24 Oct 13:49:29 13:54:30 49° 70° (ENE) 13:59:33 436.500 FM
ITAMSAT 1 24 Oct 13:55:23 14:00:25 53° 71° (ENE) 14:05:30 435.822 SSB
JAS-1B 24 Oct 14:02:57 14:08:57 75° 257° (WSW) 14:14:38 435.800 - 435.900 CW/SSB
Gurwin Techsat 1B 24 Oct 14:13:03 14:17:59 40° 69° (ENE) 14:22:56 435.225 FM
ISS 24 Oct 14:20:04 14:23:11 36° 334° (NNW) 14:26:19 145.800 FM
TMSAT-1 24 Oct 14:24:37 14:29:29 38° 68° (ENE) 14:34:22 436.925 FM
Oscar 19 24 Oct 14:24:40 14:29:22 35° 263° (W) 14:34:05 437.125 CW, 437.150 USB
Sapphire 24 Oct 14:24:57 14:29:44 32° 250° (WSW) 14:34:30 437.095 MHz 1200 baud AX-25 AFSK
KITSAT 1 24 Oct 14:29:23 14:36:27 32° 318° (NW) 14:43:33 435.175 FM
AO-27 24 Oct 14:40:50 14:45:58 60° 259° (W) 14:51:09 436.795 MHz FM
PCSat 24 Oct 14:48:20 14:52:06 19° 255° (WSW) 14:55:50 145.825 MHz
Saudisat 1A 24 Oct 15:04:25 15:06:50 14° 37° (NE) 15:09:15 436.775 MHz
AO-Echo 24 Oct 15:08:59 15:13:01 26° 266° (W) 15:17:11 ?
UOSAT-12 24 Oct 15:11:19 15:15:58 88° 121° (ESE) 15:20:43 437.025 FM, 437.400 FM
Oscar 16 24 Oct 15:13:15 15:15:34 13° 271° (W) 15:17:54 437.025 USB, Beacon 2401.1428
Uosat F 24 Oct 15:15:43 15:19:02 18° 62° (ENE) 15:22:23 435.120 FM
